Regional Weather Roundup
Issued by NWS Jackson, KY

Home | Current Version | Previous Version | Text Only | Print | Product List | Glossary Off
Versions: 1 2 3 4 5 6 7 8 9 10 11 12 13 14 15 16 17 18 19 20 21 22 23 24 25 26 27

000
ASUS43 KJKL 232210
RWRJKL

EAST KENTUCKY HOURLY WEATHER ROUNDUP
NATIONAL WEATHER SERVICE JACKSON KY
500 PM EST FRI FEB 23 2018

NOTE: "FAIR" INDICATES FEW OR NO CLOUDS BELOW 12,000 FEET WITH
NO SIGNIFICANT WEATHER AND/OR OBSTRUCTIONS TO VISIBILITY.

* THESE REPORTS ARE NOT UNDER NWS QUALITY CONTROL AND MAY NOT
  REPORT WEATHER SUCH AS PRECIPITATION AND FOG.

KYZ079-080-083-085-087-088-110-112-115-119-120-232300
...EASTERN KENTUCKY...

CITY           SKY/WX    TMP DP  RH WIND       PRES   REMARKS
JACKSON          N/A     78  54  43 MISG      30.23F
LONDON           N/A     75  53  46 SW7       30.23F
SOMERSET*        N/A     75  52  43 W10       30.24S
MONTICELLO*      N/A     76  57  51 W20       30.24F
MIDDLESBORO*   CLOUDY    76  56  51 S7        30.25F
HARLAN APT*    CLOUDY    73  52  46 CALM      30.25F
PIKE CO APT*     N/A     73  58  60 S5        30.24F
BIG SANDY APT*   N/A     76  55  47 SW9       30.23F
MOREHEAD APT*    N/A     72  57  60 SW13G24   30.23R
ASHLAND*         N/A     73  61  65 S9        30.19F
$$

KYZ035-036-041-042-044-050-067-078-099-232300
...CENTRAL KENTUCKY...

CITY           SKY/WX    TMP DP  RH WIND       PRES   REMARKS
DANVILLE*        N/A     72  55  56 SW6       30.22F
LEXINGTON      PTSUNNY   71  60  68 W6        30.21F
FRANKFORT      PTSUNNY   69  59  70 W3        30.21S
LOUISVILLE     CLOUDY    64  59  83 W9        30.22S
LEBANON*         N/A     72  59  64 SW7       30.21S
GLASGOW*         N/A     75  58  55 W6        30.20F
BOWLING GREEN  PTSUNNY   76  63  64 SW7       30.20F
$$

KYZ091>093-OHZ055-061-077-WVZ005-015-034-035-042-232300
...SOUTHERN OHIO/WEST VIRGINIA...

CITY           SKY/WX    TMP DP  RH WIND       PRES   REMARKS
COVINGTON      CLOUDY    60  57  89 W13       30.22R
COLUMBUS       CLOUDY    62  60  93 W8        30.17F
DAYTON         CLOUDY    57  54  89 W15       30.22R
WILMINGTON     PTSUNNY   62  60  93 W13       30.19R
HUNTINGTON       N/A     70  56  61 SW8       30.20F
CHARLESTON       N/A     69  62  78 SW6       30.22F
BECKLEY        PTSUNNY   72  51  47 NW7       30.26F
BLUEFIELD        N/A     70  47  43 W13       30.30F
$$

VAZ002-007-008-TNZ017-027-036-066-071-232300
...SOUTHWEST VIRGINIA/EAST TENNESSEE...

CITY           SKY/WX    TMP DP  RH WIND       PRES   REMARKS
WISE*            N/A     72  52  49 SW14      30.31F
JONESVILLE*      N/A     77  54  44 W9G16     30.28S
ABINGDON*        N/A     77  49  37 NW6       30.28F
BRISTOL          N/A     77  55  46 W6        30.26F
SEVIERVILLE*   CLOUDY    81  54  39 NW9       30.23F
KNOXVILLE        N/A     78  57  48 SW10      30.23F
LAFOLLETTE*    MOCLDY    77  55  47 SW9       30.27F
OAK RIDGE      PTSUNNY   78  55  44 S7        30.24F
CROSSVILLE     PTSUNNY   72  55  55 S6        30.27F
NASHVILLE      PTSUNNY   79  55  43 SW8       30.20S
$$

...KEY TO REMARKS...
VSB - VISIBILITY IN MILES
WCI - WIND CHILL INDEX
HX  - HEAT INDEX

$$




USA.gov is the U.S. government's official web portal to all federal, state and local government web resources and services.